Change the Weather History Date:

Thursday, December 27, 2012

  Actual Average Record
Temperature  
Mean Temperature 36 °F -  
Max Temperature 39 °F 32 °F 46 °F (1985)
Min Temperature 32 °F 26 °F 12 °F (2010)
Degree Days  
Heating Degree Days 30    
Moisture  
Dew Point 32 °F    
Average Humidity 88    
Maximum Humidity 100    
Minimum Humidity 70    
Precipitation  
Precipitation 0.00 in - - ()
Sea Level Pressure  
Sea Level Pressure 29.05 in    
Wind  
Wind Speed 8 mph (WSW)    
Max Wind Speed 15 mph    
Max Gust Speed 21 mph    
Visibility 9 miles    
Events      
Averages and records for this station are not official NWS values.
T = Trace of Precipitation, MM = Missing Value Source: NWS Daily Summary

Daily Weather History Graph

Daily Weather History Graph

Search for Another Location

Airport or City:

Trip Planner

Search our weather history database for the weather conditions in past years. The results will help you decide how hot, cold, wet, or windy it might be!

Date:

Astronomy

Dec. 27, 2012 Rise Set
Actual Time 10:09 AM AKST 5:18 PM AKST
Civil Twilight 9:23 AM AKST 6:04 PM AKST
Nautical Twilight 8:35 AM AKST 6:52 PM AKST
Astronomical Twilight 7:50 AM AKST 7:36 PM AKST
Moon 5:19 PM AKST (12/27) 9:22 AM AKST (12/27)
Length of Visible Light 8h 40m
Length of Day
7h 08m
Full, 100% of the Moon is Illuminated
Dec 27
Full
Dec 28
Full
Jan 4
Last Quarter
Jan 11
New
Jan 18
First Quarter

Hourly Weather History & Observations

Time (AKST) Temp. Windchill Dew Point Humidity Pressure Visibility Wind Dir Wind Speed Gust Speed Precip Events Conditions
12:16 AM 37.4 °F 33.8 °F 37.4 °F 100% 28.77 in 10.0 mi NW 4.6 mph - N/A   Overcast
12:36 AM 39.2 °F 32.0 °F 37.4 °F 93% 28.78 in 10.0 mi West 11.5 mph - N/A   Overcast
12:56 AM 37.4 °F 30.3 °F 37.4 °F 100% 28.79 in 10.0 mi West 10.4 mph - N/A   Overcast
1:16 AM 37.4 °F 30.3 °F 35.6 °F 93% 28.81 in 10.0 mi WNW 10.4 mph - N/A   Overcast
1:36 AM 37.4 °F 30.3 °F 37.4 °F 100% 28.81 in 10.0 mi NW 10.4 mph - N/A   Overcast
1:56 AM 37.4 °F 30.3 °F 37.4 °F 100% 28.82 in 10.0 mi NW 10.4 mph - N/A   Overcast
2:16 AM 37.4 °F 31.4 °F 37.4 °F 100% 28.84 in 10.0 mi NW 8.1 mph - N/A   Overcast
2:36 AM 37.4 °F 32.8 °F 37.4 °F 100% 28.85 in 10.0 mi WNW 5.8 mph - N/A   Overcast
2:56 AM 37.4 °F 32.1 °F 35.6 °F 93% 28.85 in 10.0 mi WNW 6.9 mph - N/A   Overcast
3:16 AM 37.4 °F 30.3 °F 35.6 °F 93% 28.87 in 10.0 mi West 10.4 mph - N/A   Overcast
3:36 AM 37.4 °F 32.1 °F 35.6 °F 93% 28.89 in 10.0 mi WNW 6.9 mph - N/A   Overcast
3:56 AM 37.4 °F 30.8 °F 33.8 °F 87% 28.90 in 10.0 mi WNW 9.2 mph - N/A   Overcast
4:16 AM 35.6 °F 28.0 °F 33.8 °F 93% 28.90 in 10.0 mi West 10.4 mph - N/A   Overcast
4:36 AM 35.6 °F 27.5 °F 33.8 °F 93% 28.91 in 10.0 mi West 11.5 mph - N/A   Overcast
4:56 AM 35.6 °F 28.0 °F 33.8 °F 93% 28.93 in 10.0 mi WNW 10.4 mph - N/A   Overcast
5:16 AM 35.6 °F 28.0 °F 32.0 °F 87% 28.93 in 10.0 mi WNW 10.4 mph - N/A   Overcast
5:36 AM 35.6 °F 28.0 °F 32.0 °F 87% 28.94 in 10.0 mi WNW 10.4 mph - N/A   Overcast
5:56 AM 35.6 °F 29.9 °F 32.0 °F 87% 28.95 in 10.0 mi WNW 6.9 mph - N/A   Overcast
6:16 AM 35.6 °F 31.7 °F 33.8 °F 93% 28.97 in 10.0 mi West 4.6 mph - N/A   Overcast
6:36 AM 35.6 °F 28.6 °F 33.8 °F 93% 28.97 in 10.0 mi West 9.2 mph - N/A   Overcast
6:56 AM 35.6 °F 28.0 °F 33.8 °F 93% 28.98 in 10.0 mi WNW 10.4 mph - N/A   Overcast
7:16 AM 33.8 °F 27.7 °F 33.8 °F 100% 29.00 in 10.0 mi WNW 6.9 mph - N/A   Overcast
7:36 AM 33.8 °F 29.6 °F 33.8 °F 100% 28.99 in 5.0 mi WNW 4.6 mph - N/A   Overcast
7:56 AM 33.8 °F 27.7 °F 33.8 °F 100% 29.01 in 10.0 mi West 6.9 mph - N/A   Overcast
8:16 AM 33.8 °F 27.7 °F 33.8 °F 100% 29.02 in 10.0 mi West 6.9 mph - N/A   Overcast
8:36 AM 33.8 °F 27.0 °F 33.8 °F 100% 29.03 in 10.0 mi WSW 8.1 mph - N/A   Overcast
8:56 AM 33.8 °F 28.6 °F 33.8 °F 100% 29.03 in 2.5 mi West 5.8 mph - N/A   Overcast
9:16 AM 33.8 °F - 33.8 °F 100% 29.04 in 2.0 mi Calm Calm - N/A   Overcast
9:36 AM 33.8 °F 30.8 °F 33.8 °F 100% 29.06 in 3.0 mi West 3.5 mph - N/A   Overcast
10:16 AM 33.8 °F 28.6 °F 33.8 °F 100% 29.07 in 9.0 mi West 5.8 mph - N/A   Overcast
10:36 AM 33.8 °F 27.7 °F 32.0 °F 93% 29.08 in 8.0 mi West 6.9 mph - N/A   Mostly Cloudy
10:56 AM 32.0 °F 23.6 °F 32.0 °F 100% 29.10 in 10.0 mi West 10.4 mph - N/A   Mostly Cloudy
11:16 AM 32.0 °F 28.7 °F 32.0 °F 100% 29.11 in 10.0 mi West 3.5 mph - N/A   Mostly Cloudy
11:36 AM 33.8 °F 30.8 °F 33.8 °F 100% 29.11 in 10.0 mi WSW 3.5 mph - N/A   Mostly Cloudy
11:56 AM 33.8 °F 25.3 °F 30.2 °F 87% 29.12 in 10.0 mi WSW 11.5 mph - N/A   Mostly Cloudy
12:16 PM 33.8 °F 25.8 °F 30.2 °F 87% 29.13 in 10.0 mi SW 10.4 mph - N/A   Mostly Cloudy
12:36 PM 33.8 °F 24.8 °F 30.2 °F 87% 29.13 in 10.0 mi SW 12.7 mph - N/A   Mostly Cloudy
12:56 PM 33.8 °F 25.3 °F 28.4 °F 81% 29.13 in 10.0 mi SW 11.5 mph - N/A   Mostly Cloudy
1:16 PM 35.6 °F 29.2 °F 28.4 °F 75% 29.13 in 10.0 mi SSW 8.1 mph - N/A   Mostly Cloudy
1:36 PM 35.6 °F 28.6 °F 28.4 °F 75% 29.14 in 10.0 mi SW 9.2 mph - N/A   Mostly Cloudy
1:56 PM 35.6 °F 28.0 °F 28.4 °F 75% 29.13 in 10.0 mi SSW 10.4 mph - N/A   Mostly Cloudy
2:16 PM 33.8 °F 24.8 °F 28.4 °F 81% 29.13 in 10.0 mi SSW 12.7 mph - N/A   Mostly Cloudy
2:36 PM 33.8 °F 25.8 °F 28.4 °F 81% 29.13 in 10.0 mi SSW 10.4 mph - N/A   Scattered Clouds
3:16 PM 35.6 °F 27.5 °F 28.4 °F 75% 29.15 in 10.0 mi SSW 11.5 mph - N/A   Scattered Clouds
3:36 PM 33.8 °F 23.9 °F 28.4 °F 81% 29.15 in 10.0 mi SW 15.0 mph 20.7 mph N/A   Mostly Cloudy
3:56 PM 33.8 °F 24.8 °F 28.4 °F 81% 29.17 in 10.0 mi SW 12.7 mph - N/A   Mostly Cloudy
4:16 PM 33.8 °F 24.3 °F 28.4 °F 81% 29.16 in 10.0 mi SSW 13.8 mph - N/A   Mostly Cloudy
4:36 PM 33.8 °F 24.3 °F 28.4 °F 81% 29.16 in 10.0 mi SSW 13.8 mph - N/A   Mostly Cloudy
4:56 PM 33.8 °F 25.3 °F 28.4 °F 81% 29.16 in 10.0 mi SSW 11.5 mph - N/A   Mostly Cloudy
5:16 PM 35.6 °F 28.0 °F 28.4 °F 75% 29.18 in 10.0 mi SSW 10.4 mph - N/A   Mostly Cloudy
5:36 PM 35.6 °F 28.0 °F 28.4 °F 75% 29.17 in 10.0 mi South 10.4 mph 16.1 mph N/A   Mostly Cloudy
5:56 PM 35.6 °F 28.0 °F 26.6 °F 70% 29.16 in 10.0 mi South 10.4 mph - N/A   Mostly Cloudy
6:16 PM 33.8 °F 25.3 °F 28.4 °F 81% 29.17 in 10.0 mi South 11.5 mph - N/A   Mostly Cloudy
6:36 PM 33.8 °F 24.8 °F 28.4 °F 81% 29.18 in 10.0 mi South 12.7 mph - N/A   Mostly Cloudy
6:56 PM 33.8 °F 25.8 °F 28.4 °F 81% 29.17 in 10.0 mi South 10.4 mph - N/A   Mostly Cloudy
7:16 PM 33.8 °F 25.3 °F 28.4 °F 81% 29.17 in 10.0 mi South 11.5 mph - N/A   Overcast
7:36 PM 33.8 °F 26.4 °F 28.4 °F 81% 29.17 in 10.0 mi SSE 9.2 mph - N/A   Overcast
7:56 PM 35.6 °F 27.5 °F 28.4 °F 75% 29.18 in 10.0 mi South 11.5 mph - N/A   Overcast
8:16 PM 35.6 °F 27.5 °F 28.4 °F 75% 29.16 in 10.0 mi South 11.5 mph - N/A   Overcast
8:36 PM 35.6 °F 30.7 °F 28.4 °F 75% 29.15 in 10.0 mi SE 5.8 mph - N/A   Overcast
8:56 PM 35.6 °F 31.7 °F 28.4 °F 75% 29.14 in 10.0 mi SE 4.6 mph - N/A   Overcast
9:16 PM 35.6 °F 28.0 °F 28.4 °F 75% 29.16 in 10.0 mi SE 10.4 mph - N/A   Overcast
9:36 PM 35.6 °F 30.7 °F 28.4 °F 75% 29.16 in 10.0 mi SE 5.8 mph - N/A   Overcast
9:56 PM 35.6 °F 32.8 °F 28.4 °F 75% 29.16 in 10.0 mi SE 3.5 mph - N/A   Overcast
10:16 PM 35.6 °F - 30.2 °F 81% 29.16 in 7.0 mi Calm Calm - N/A   Overcast
10:36 PM 33.8 °F - 30.2 °F 87% 29.15 in 3.0 mi Calm Calm - N/A   Overcast
10:56 PM 33.8 °F 28.6 °F 32.0 °F 93% 29.14 in 3.0 mi SSE 5.8 mph - N/A   Overcast
11:16 PM 33.8 °F - 32.0 °F 93% 29.14 in 3.0 mi Calm Calm - N/A   Overcast
11:36 PM 33.8 °F - 33.8 °F 100% 29.14 in 2.5 mi Calm Calm - N/A   Overcast
11:56 PM 33.8 °F - 33.8 °F 100% 29.15 in 1.8 mi Calm Calm - N/A   Overcast